Youcef Mrezigue

Chief Scout - MC Alger
21 Feb 2027
Sunday
Process

Personality

Adaptability (2) Ambition (1) Controversy (3) Loyalty (5) Pressure (1) Professionalism (6) Sportsmanship (14) Temperament (1)

Profile

Coaching Style Democratic
License Continental Pro
Determination 5
Man Management 12
Motivating 10
Discipline 10
Job Satisfaction
49%
Fatigue
0%
Role Chief Scout
Wage 29.8K p/w
Contract 14.03.2028

Performance

Behaviour Normal
Training Effectiveness
23%
Player Development
35%
Injury Prevention
40%
Tactical Implementation
45%

Recent Events

Attended a recruitment meeting now
Attended a recruitment meeting now
Attended a recruitment meeting now
Attended a recruitment meeting now
Assessed a player now
Assessed a player now
Assessed a player now
Assessed a player now

Currently Monitoring

127
Player Club Status Ability Confidence Watched Last Observed Latest Vote
Jason Al-Fayha Active 112 / 127 40% 9 20.02.2027 -
Rhian Brewster Derby County Active 120 / 127 40% 1 19.02.2027 -
Martín Garnerone Estudiantes Active 122 / 108 40% 1 19.02.2027 -
Braian Álvarez Arsenal Tula Active 116 / 111 40% 1 19.02.2027 -
Kwadwo Kudus Hasaacas Active 98 / 106 40% 1 19.02.2027 -
Aubrey Modiba Mamelodi Sundowns Active 119 / 124 40% 1 18.02.2027 -
Abdulrahman Ghareeb Al-Ahli Active 115 / 113 40% 1 18.02.2027 -
Tariq Abdullah Damac Active 98 / 98 40% 2 16.02.2027 -
Brian Figueroa Morelia Active 100 / 106 40% 3 16.02.2027 -
Juanjo Narváez Al-Ra'ed Active 108 / 112 40% 4 15.02.2027 -
Ali Saleh Al Wasl Active 129 / 119 40% 2 15.02.2027 -
Valentín Vada Damac Active 131 / 124 40% 2 14.02.2027 -
Ahmed Bamasud Al-Fayha Active 112 / 107 40% 1 14.02.2027 -
Abderrahmane Meziane CR Belouizdad Active 113 / 110 40% 2 13.02.2027 -
Erick Ngcobo Black Aces Active 98 / 98 40% 4 12.02.2027 -
Abraham Ofori WAFA Active 113 / 106 40% 1 12.02.2027 -
Jayden Sweeney Grimsby Town Active 88 / 109 40% 1 12.02.2027 -
Trezeguet Al-Riyadh Active 121 / 136 40% 6 10.02.2027 -
Keagan Manyama Ajax Cape Town Active 104 / 118 40% 1 10.02.2027 -
François Kamano Sochi Active 116 / 107 40% 2 09.02.2027 -
Lebohang Maboe Kaizer Chiefs Active 118 / 119 40% 2 09.02.2027 -
Mohamed Kanno Al-Hilal Active 134 / 129 40% 3 08.02.2027 -
Faiz Mattoir Septemvri Active 105 / 115 40% 1 07.02.2027 -
Charles Vernam Grimsby Town Active 97 / 99 40% 1 06.02.2027 -
Iuri Medeiros Ujpest Active 138 / 124 40% 1 05.02.2027 -
Yanis Hamache MC Oran Active 115 / 113 40% 1 05.02.2027 -
Ali Suqrat Al Shaab Active 102 / 126 40% 1 05.02.2027 -
Bradley Cross Kaizer Chiefs Active 113 / 107 40% 1 05.02.2027 -
Pedro Rebocho Al-Khaleej Active 109 / 114 40% 2 01.02.2027 -
Leo Goglichidze Rodina Active 102 / 113 40% 1 01.02.2027 -
Jonathan Sulemana BA All Stars Active 102 / 103 40% 2 29.01.2027 -
Saleh Abu Al-Shamat Al-Ahli Active 131 / 116 40% 1 29.01.2027 -
Mohau Nkota Al-Ettifaq Active 118 / 124 40% 2 27.01.2027 -
Lebogang Erasmus Platinum Stars Active 104 / 98 40% 1 27.01.2027 -
Charlie Webster Burton Albion Active 124 / 110 40% 1 25.01.2027 -
Kyle John Port Vale Active 114 / 103 40% 1 25.01.2027 -
Fahad Al-Zubaidi Al-Fateh Active 106 / 113 40% 1 12.01.2027 -
Mohamed Konaté Akhmat Grozny Active 114 / 118 40% 1 12.01.2027 -
Chinonso Offor Baltika Active 111 / 106 40% 1 11.01.2027 -
Jayden Sweeney Grimsby Town Lost 96 / 92 40% 1 02.01.2027 -
Kelland Watts Cambridge United Lost 95 / 104 40% 1 02.01.2027 -
Abdullah Al-Ammar Al-Khaleej Active 96 / 102 40% 2 30.12.2026 -
Álvaro Medrán Al-Ettifaq Active 135 / 123 40% 5 30.12.2026 -
Evgeny Staver Rubin Active 113 / 102 40% 2 28.12.2026 Needs More Info
Marius Adamonis Fehervar Active 124 / 109 40% 1 28.12.2026 -
Nahuel Manganelli Dinamo Batumi Active 127 / 108 40% 1 27.12.2026 -
Jacob Karlstrøm Anorthosis Active 126 / 127 40% 1 27.12.2026 -
Kristoffer Zachariassen Ferencvaros Active 126 / 120 40% 1 25.12.2026 -
Frédéric Maciel CSKA 1948 Active 101 / 114 40% 1 25.12.2026 -
Luke Molyneux Doncaster Rovers Active 115 / 119 40% 1 23.12.2026 -
Daniel Harvie Wycombe Wanderers Active 100 / 114 40% 1 23.12.2026 -
João Valido Chaves Active 102 / 107 40% 1 23.12.2026 -
Younes El Bahraoui Al-Taawoun Active 109 / 112 40% 2 21.12.2026 -
Martin Velichkov Lokomotiv Sofia Active 93 / 94 40% 2 21.12.2026 -
Kewin Damac Active 119 / 125 40% 1 21.12.2026 -
Sultan Al-Ghannam Al-Nassr Active 109 / 105 40% 4 18.12.2026 -
Dimitar Sheytanov CSKA 1948 Active 125 / 117 40% 2 18.12.2026 -
Milan Tučić Honved Active 99 / 110 40% 1 18.12.2026 -
Jordan Roberts Stevenage Active 100 / 121 40% 1 17.12.2026 -
Uerdi Mara Qarabag Active 111 / 121 40% 1 17.12.2026 -
Marcelo Miño Debrecen Active 117 / 118 40% 1 15.12.2026 -
Saymon Dibba Active 121 / 102 40% 1 12.12.2026 -
Kaku Al Ain Active 125 / 131 40% 4 07.12.2026 Monitor
Saeed Al Naqbi Al Ahli Active 126 / 113 40% 1 07.12.2026 Needs More Info
Sergey Volkov Rodina Active 93 / 99 40% 1 05.12.2026 -
Rustam Yatimov Rostov Active 130 / 116 40% 1 05.12.2026 -
Firas Ben Larbi Sharjah Active 115 / 118 40% 3 04.12.2026 -
Velemseni Ndwandwe Golden Arrows Active 120 / 103 40% 1 04.12.2026 -
Lucas Bruera Carabobo Active 111 / 129 40% 1 02.12.2026 -
Nicolás Giménez Al Wasl Active 119 / 119 40% 4 30.11.2026 -
Nabil Alioui Damac Active 97 / 119 40% 4 27.11.2026 -
Karim El Berkaoui Al Dhafra Active 124 / 113 40% 2 27.11.2026 -
Lautaro Petruchi Al Shabab Active 106 / 122 40% 1 27.11.2026 -
Patrik Demjén MTK Budapest Active 98 / 119 40% 1 27.11.2026 -
Daniil Frolkin Fakel Active 119 / 106 40% 1 25.11.2026 -
Khalfan Al Naqbi Al Ahli Active 109 / 121 40% 1 25.11.2026 -
Thabo Nodada Maritzburg United Active 96 / 114 40% 1 22.11.2026 -
Moussa N'Diaye Al Nasr Active 122 / 112 40% 1 21.11.2026 -
Mohammed Al-Dossary Al-Ra'ed Active 112 / 92 40% 1 21.11.2026 -
João Moreira Al Nasr Active 101 / 127 40% 2 19.11.2026 -
Lebogang Zwane Black Aces Active 90 / 97 40% 1 18.11.2026 -
Edarlyn Reyes Arsenal Tula Active 100 / 97 40% 1 18.11.2026 -
Abdulla Abdullayev Dibba Active 103 / 115 40% 3 16.11.2026 -
Haashim Domingo Maritzburg United Active 123 / 117 40% 1 11.11.2026 -
Agustín Ramírez Inter Active 120 / 95 40% 1 09.11.2026 -
Mohammed Rabii Al Jazira Active 112 / 114 40% 2 04.11.2026 -
Gift Ngcobo SuperSport United Active 94 / 116 40% 1 04.11.2026 -
Abdullah Al-Khaibari Al-Nassr Active 110 / 125 40% 1 03.11.2026 -
Facundo Kruspzky Al Wahda Active 111 / 126 40% 1 03.11.2026 -
Ahmed Hamdi Ittihad Active 106 / 109 40% 1 01.11.2026 -
Caio Lucas Al Ain Active 136 / 121 40% 2 29.10.2026 -
Suhail Al-Noobi Baniyas Active 108 / 102 40% 3 28.10.2026 -
Alfa Semedo Al-Fayha Active 106 / 111 40% 2 28.10.2026 -
Alfredo Garcia La Equidad Active 152 / 147 40% 1 23.10.2026 -
Jobson Al Dhafra Active 106 / 122 40% 2 19.10.2026 -
Erik Al Ahli Active 107 / 130 40% 2 15.10.2026 -
Nasser Saeed Al Shaab Active 113 / 114 40% 3 13.10.2026 -
Hugo Al Wasl Active 129 / 108 40% 1 13.10.2026 -
Reda Jaadi BATE Active 107 / 113 40% 4 11.10.2026 -
David Gallardo Gimnasia y Esgrima Active 99 / 107 40% 1 10.10.2026 -
Nasser Al Shamsi Al Shabab Active 109 / 134 40% 1 10.10.2026 -
Hamza Sakhi Hajer Active 95 / 106 40% 1 08.10.2026 -
Aljoša Matko Ujpest Active 118 / 127 40% 1 07.10.2026 -
Saeed Baattia Al-Fateh Active 93 / 97 40% 2 05.10.2026 -
Aiman Yahya Al-Nassr Active 112 / 120 40% 1 04.10.2026 -
Mohammed Abbas Al Ain Active 94 / 112 40% 2 01.10.2026 -
Sultan Mandash Al-Hilal Active 128 / 113 40% 1 01.10.2026 -
Darwin González Al-Wehda Active 106 / 122 40% 1 26.09.2026 -
Yassine Benzia Al-Fayha Active 120 / 120 40% 1 24.09.2026 -
Mohamed El Khaloui Al Dhafra Active 120 / 98 40% 1 24.09.2026 -
Leandrinho Emirates Club Active 107 / 107 40% 1 15.09.2026 -
Brahima Diarra Al Wahda Active 102 / 119 40% 1 12.09.2026 -
Saeed Al-Hamsal Al-Khaleej Active 91 / 100 40% 1 12.09.2026 -
Ibrahim Bayesh Al Dhafra Active 122 / 131 40% 1 10.09.2026 -
Mohammad Ghorbani Al Wahda Active 96 / 117 40% 1 09.09.2026 -
Majid Surour Sharjah Active 114 / 114 40% 1 09.09.2026 -
Ibrahim Yaqoob Al Ahli Active 104 / 113 40% 1 07.09.2026 -
Haitham Asiri Al-Faisaly Active 103 / 96 40% 1 31.08.2026 -
Hugo Moura Al-Fayha Active 106 / 124 40% 1 31.08.2026 -
Khalid Al-Ghannam Al-Ettifaq Active 124 / 120 40% 1 30.08.2026 -
Rafael Rodrigues Al Ain Active 131 / 112 40% 1 30.08.2026 -
Elton Acolatse Al-Hazem Active 130 / 116 40% 2 29.08.2026 -
Renato Tapia Al Wasl Active 148 / 140 40% 1 29.08.2026 -
Guga Al Wahda Active 98 / 104 40% 1 27.08.2026 -
Amer Ismail Al Ahli Active 120 / 114 40% 1 27.08.2026 -
Yassine Bounou Al-Hilal Active 152 / 144 40% 1 02.08.2026 -
Ousmane Camara Sharjah Active 127 / 118 40% 1 01.08.2026 -